20040402,000002,863992,32.589440,-122.815260,15.334,32.956,NaN,NaN
20040402,000032,864022,32.589630,-122.815320,15.316,32.851,NaN,NaN
20040402,000102,864051,32.589830,-122.815330,15.317,32.939,NaN,NaN
20040402,000132,864082,32.590000,-122.815380,15.367,32.913,NaN,NaN
20040402,000202,864112,32.590210,-122.815350,15.474,32.911,NaN,NaN
20040402,000232,864142,32.590390,-122.815300,15.336,32.945,NaN,NaN
20040402,000302,864172,32.590600,-122.815330,15.291,32.958,NaN,NaN
20040402,000332,864202,32.590820,-122.815370,15.273,32.939,NaN,NaN
20040402,000402,864231,32.591070,-122.815430,15.291,32.965,NaN,NaN
20040402,000432,864262,32.591280,-122.815430,15.289,32.964,NaN,NaN
20040402,000502,864292,32.591480,-122.815390,15.319,32.965,NaN,NaN
20040402,000532,864322,32.591690,-122.815390,15.312,32.963,NaN,NaN
20040402,000602,864352,32.591930,-122.815420,15.322,32.937,NaN,NaN
20040402,000632,864382,32.592230,-122.815410,15.291,32.952,NaN,NaN
20040402,000702,864412,32.592520,-122.815470,15.283,32.956,NaN,NaN
20040402,000732,864442,32.592840,-122.815470,15.289,32.962,NaN,NaN
20040402,000802,864472,32.593160,-122.815480,15.307,32.942,NaN,NaN
20040402,000832,864502,32.593400,-122.815530,15.294,32.965,NaN,NaN
20040402,000902,864532,32.593580,-122.815500,15.318,32.960,NaN,NaN
20040402,000932,864561,32.593740,-122.815470,15.316,32.960,NaN,NaN
20040402,001002,864592,32.593910,-122.815490,15.302,32.933,NaN,NaN
20040402,001032,864622,32.594130,-122.815480,15.285,32.939,NaN,NaN
20040402,001102,864652,32.594380,-122.815530,15.253,32.954,NaN,NaN
20040402,001132,864682,32.594680,-122.815610,15.242,32.947,NaN,NaN
20040402,001202,864712,32.594950,-122.815620,15.254,32.954,NaN,NaN
20040402,001232,864742,32.595230,-122.815620,15.291,32.954,NaN,NaN
20040402,001302,864772,32.595520,-122.815630,15.293,32.943,NaN,NaN
20040402,001332,864802,32.595800,-122.815730,15.259,32.947,NaN,NaN
20040402,001402,864832,32.595990,-122.815750,15.266,32.946,NaN,NaN
20040402,001432,864862,32.596230,-122.815780,15.230,32.942,NaN,NaN
20040402,001502,864891,32.596440,-122.815780,15.219,32.943,NaN,NaN
20040402,001532,864922,32.596700,-122.815800,15.214,32.946,NaN,NaN
20040402,001602,864952,32.596980,-122.815830,15.213,32.949,NaN,NaN
20040402,001632,864982,32.597250,-122.815880,15.211,32.949,NaN,NaN
20040402,001702,865012,32.597530,-122.815860,15.213,32.947,NaN,NaN
20040402,001732,865042,32.597720,-122.815840,15.223,32.947,NaN,NaN
20040402,001802,865071,32.597910,-122.815860,15.226,32.947,NaN,NaN
20040402,001832,865102,32.598090,-122.815880,15.248,32.949,NaN,NaN
20040402,001902,865132,32.598310,-122.815910,15.427,32.954,NaN,NaN
20040402,001932,865162,32.598500,-122.815880,15.267,32.933,NaN,NaN
20040402,002002,865192,32.598670,-122.815860,15.236,32.940,NaN,NaN
20040402,002032,865222,32.598870,-122.815820,15.303,32.815,NaN,NaN
20040402,002102,865252,32.599080,-122.815860,15.304,32.793,NaN,NaN
20040402,002132,865282,32.599290,-122.815940,15.333,32.822,NaN,NaN
20040402,002202,865312,32.599520,-122.816010,15.341,32.913,NaN,NaN
20040402,002232,865342,32.599760,-122.815940,15.327,32.885,NaN,NaN
20040402,002302,865372,32.599980,-122.815900,15.395,32.881,NaN,NaN
20040402,002332,865401,32.600190,-122.815980,15.378,32.885,NaN,NaN
20040402,002402,865432,32.600420,-122.815990,15.252,32.868,NaN,NaN
20040402,002432,865462,32.600650,-122.816040,15.185,32.889,NaN,NaN
20040402,002502,865492,32.600900,-122.816060,15.173,32.897,NaN,NaN
20040402,002532,865522,32.601170,-122.816120,15.306,32.847,NaN,NaN
20040402,002602,865552,32.601450,-122.816120,15.229,32.915,NaN,NaN
20040402,002632,865581,32.601720,-122.816190,15.156,32.900,NaN,NaN
20040402,002702,865612,32.602010,-122.816150,15.126,32.883,NaN,NaN
20040402,002732,865642,32.602310,-122.816170,15.133,32.916,NaN,NaN
20040402,002802,865672,32.602600,-122.816200,15.166,32.904,NaN,NaN
20040402,002832,865702,32.602910,-122.816260,15.136,32.912,NaN,NaN
20040402,002902,865732,32.603160,-122.816220,15.128,32.907,NaN,NaN
20040402,002932,865762,32.603390,-122.816200,15.130,32.915,NaN,NaN
20040402,003002,865792,32.603680,-122.816200,15.127,32.917,NaN,NaN
20040402,003032,865822,32.603980,-122.816270,15.126,32.913,NaN,NaN
20040402,003102,865852,32.604270,-122.816370,15.117,32.902,NaN,NaN
20040402,003132,865882,32.604580,-122.816310,15.109,32.915,NaN,NaN
20040402,003202,865911,32.604830,-122.816390,15.102,32.914,NaN,NaN
20040402,003233,865943,32.605070,-122.816460,15.106,32.908,NaN,NaN
20040402,003303,865973,32.605260,-122.816490,15.175,32.908,NaN,NaN
20040402,003333,866003,32.605480,-122.816530,15.147,32.877,NaN,NaN
20040402,003402,866032,32.605780,-122.816600,15.083,32.880,NaN,NaN
20040402,003432,866062,32.606130,-122.816670,15.069,32.888,NaN,NaN
20040402,003502,866092,32.606480,-122.816720,15.086,32.902,NaN,NaN
20040402,003532,866122,32.606830,-122.816790,15.162,32.891,NaN,NaN
20040402,003602,866152,32.607180,-122.816930,15.132,32.887,NaN,NaN
20040402,003632,866182,32.607510,-122.817020,15.092,32.891,NaN,NaN
20040402,003702,866212,32.607820,-122.817090,15.213,32.893,NaN,NaN
20040402,003732,866241,32.608110,-122.817200,15.191,32.891,NaN,NaN
20040402,003802,866272,32.608440,-122.817330,15.267,32.866,NaN,NaN
20040402,003832,866302,32.608740,-122.817390,15.071,32.860,NaN,NaN
20040402,003902,866332,32.609090,-122.817490,15.053,32.872,NaN,NaN
20040402,003932,866362,32.609450,-122.817600,15.068,32.860,NaN,NaN
20040402,004002,866392,32.609810,-122.817700,15.253,32.882,NaN,NaN
20040402,004032,866421,32.610130,-122.817760,15.424,32.871,NaN,NaN
20040402,004102,866452,32.610500,-122.817860,15.162,32.860,NaN,NaN
20040402,004132,866482,32.610790,-122.817940,14.994,32.871,NaN,NaN
20040402,004202,866512,32.611090,-122.818040,14.958,32.878,NaN,NaN
20040402,004232,866542,32.611440,-122.818100,15.001,32.872,NaN,NaN
20040402,004303,866573,32.611740,-122.818120,15.002,32.831,NaN,NaN
20040402,004332,866602,32.612060,-122.818180,14.960,32.868,NaN,NaN
20040402,004403,866633,32.612420,-122.818280,14.950,32.849,NaN,NaN
20040402,004433,866662,32.612710,-122.818350,14.949,32.858,NaN,NaN
20040402,004503,866693,32.613040,-122.818350,14.983,32.873,NaN,NaN
20040402,004533,866723,32.613330,-122.818470,14.979,32.857,NaN,NaN
20040402,004603,866753,32.613630,-122.818580,14.943,32.869,NaN,NaN
20040402,004633,866783,32.614000,-122.818660,14.949,32.866,NaN,NaN
20040402,004703,866813,32.614330,-122.818720,14.903,32.863,NaN,NaN
20040402,004733,866842,32.614670,-122.818780,14.892,32.861,NaN,NaN
20040402,004803,866873,32.615010,-122.818840,14.907,32.864,NaN,NaN
20040402,004833,866903,32.615330,-122.818910,14.913,32.863,NaN,NaN
20040402,004903,866933,32.615680,-122.818970,14.912,32.869,NaN,NaN
20040402,004933,866963,32.616040,-122.819040,14.917,32.866,NaN,NaN
20040402,005003,866992,32.616420,-122.819100,14.892,32.865,NaN,NaN
20040402,005033,867023,32.616750,-122.819210,14.893,32.866,NaN,NaN
20040402,005103,867053,32.617140,-122.819240,14.902,32.866,NaN,NaN
20040402,005133,867083,32.617450,-122.819260,14.907,32.868,NaN,NaN
20040402,005203,867113,32.617850,-122.819320,15.063,32.861,NaN,NaN
20040402,005233,867143,32.618220,-122.819390,14.999,32.864,NaN,NaN
20040402,005303,867172,32.618610,-122.819450,14.920,32.829,NaN,NaN
20040402,005333,867203,32.618980,-122.819480,14.898,32.835,NaN,NaN
20040402,005403,867233,32.619390,-122.819520,14.893,32.835,NaN,NaN
20040402,005433,867263,32.619770,-122.819620,14.894,32.865,NaN,NaN
20040402,005503,867293,32.620160,-122.819700,14.913,32.860,NaN,NaN
20040402,005533,867323,32.620520,-122.819770,14.822,32.857,NaN,NaN
20040402,005603,867353,32.620810,-122.819840,14.816,32.850,NaN,NaN
20040402,005633,867383,32.621120,-122.819850,14.831,32.860,NaN,NaN
20040402,005703,867413,32.621490,-122.819880,14.851,32.803,NaN,NaN
20040402,005733,867443,32.621870,-122.819940,14.823,32.823,NaN,NaN
20040402,005803,867473,32.622280,-122.819980,14.833,32.783,NaN,NaN
20040402,005833,867502,32.622640,-122.820020,14.848,32.847,NaN,NaN
20040402,005903,867533,32.622910,-122.820070,14.877,32.855,NaN,NaN
20040402,005933,867563,32.623210,-122.820140,14.922,32.843,NaN,NaN
20040402,010003,867593,32.623470,-122.820180,14.892,32.817,NaN,NaN
20040402,010033,867623,32.623800,-122.820230,14.827,32.835,NaN,NaN
20040402,010103,867653,32.624160,-122.820240,14.811,32.829,NaN,NaN
20040402,010133,867682,32.624540,-122.820270,14.812,32.846,NaN,NaN
20040402,010203,867713,32.624890,-122.820350,14.839,32.867,NaN,NaN
20040402,010233,867743,32.625240,-122.820400,14.898,32.864,NaN,NaN
20040402,010304,867774,32.625630,-122.820490,14.863,32.823,NaN,NaN
20040402,010333,867803,32.625940,-122.820520,14.856,32.840,NaN,NaN
20040402,010403,867833,32.626260,-122.820530,14.850,32.800,NaN,NaN
20040402,010434,867864,32.626630,-122.820520,14.833,32.784,NaN,NaN
20040402,010503,867893,32.626980,-122.820580,14.858,32.816,NaN,NaN
20040402,010533,867923,32.627400,-122.820630,14.874,32.850,NaN,NaN
20040402,010603,867953,32.627740,-122.820680,14.855,32.846,NaN,NaN
20040402,010633,867983,32.628160,-122.820720,14.859,32.844,NaN,NaN
20040402,010703,868012,32.628550,-122.820790,14.856,32.854,NaN,NaN
20040402,010733,868043,32.628950,-122.820770,14.817,32.862,NaN,NaN
20040402,010803,868073,32.629470,-122.820660,14.813,32.861,NaN,NaN
20040402,010833,868103,32.630010,-122.820500,14.805,32.858,NaN,NaN
20040402,010903,868133,32.630550,-122.820290,14.842,32.863,NaN,NaN
20040402,010933,868163,32.631090,-122.820060,14.975,32.860,NaN,NaN
20040402,011003,868192,32.631740,-122.819760,14.943,32.847,NaN,NaN
20040402,011033,868223,32.632500,-122.819490,14.852,32.818,NaN,NaN
20040402,011103,868253,32.633310,-122.819150,14.842,32.836,NaN,NaN
20040402,011133,868283,32.634040,-122.818750,14.886,32.856,NaN,NaN
20040402,011203,868313,32.634770,-122.818380,14.980,32.836,NaN,NaN
20040402,011233,868342,32.635580,-122.817980,14.963,32.819,NaN,NaN
20040402,011303,868373,32.636380,-122.817590,14.853,32.816,NaN,NaN
20040402,011334,868404,32.637130,-122.817110,14.799,32.813,NaN,NaN
20040402,011404,868433,32.637840,-122.816740,14.792,32.834,NaN,NaN
20040402,011433,868463,32.638550,-122.816340,14.788,32.752,NaN,NaN
20040402,011503,868493,32.639260,-122.815920,14.804,32.845,NaN,NaN
20040402,011534,868524,32.640010,-122.815510,14.830,32.862,NaN,NaN
20040402,011603,868553,32.640750,-122.815110,14.989,32.863,NaN,NaN
20040402,011633,868583,32.641460,-122.814640,15.004,32.866,NaN,NaN
20040402,011704,868614,32.642240,-122.814220,15.104,32.844,NaN,NaN
20040402,011734,868644,32.642990,-122.813830,14.906,32.834,NaN,NaN
20040402,011804,868674,32.643740,-122.813450,14.881,32.831,NaN,NaN
20040402,011834,868704,32.644480,-122.813040,14.882,32.838,NaN,NaN
20040402,011904,868734,32.645190,-122.812650,14.934,32.849,NaN,NaN
20040402,011934,868763,32.645920,-122.812250,15.103,32.858,NaN,NaN
20040402,012004,868794,32.646640,-122.811840,15.265,32.840,NaN,NaN
20040402,012034,868824,32.647330,-122.811450,15.084,32.812,NaN,NaN
20040402,012104,868854,32.648010,-122.811050,14.966,32.828,NaN,NaN
20040402,012134,868884,32.648730,-122.810650,14.907,32.821,NaN,NaN
20040402,012204,868914,32.649460,-122.810230,14.912,32.824,NaN,NaN
20040402,012235,868945,32.650200,-122.809760,15.038,32.785,NaN,NaN
20040402,012305,868975,32.650930,-122.809370,14.936,32.841,NaN,NaN
20040402,012335,869005,32.651700,-122.808960,14.845,32.830,NaN,NaN
20040402,012404,869034,32.652390,-122.808520,14.800,32.721,NaN,NaN
20040402,012435,869065,32.653010,-122.808160,14.792,32.859,NaN,NaN
20040402,012505,869095,32.653730,-122.807780,14.949,32.799,NaN,NaN
20040402,012535,869125,32.654510,-122.807370,14.895,32.797,NaN,NaN
20040402,012605,869155,32.655280,-122.806940,14.868,32.836,NaN,NaN
20040402,012634,869184,32.656030,-122.806620,14.876,32.830,NaN,NaN
20040402,012704,869214,32.656780,-122.806170,14.897,32.832,NaN,NaN
20040402,012734,869244,32.657490,-122.805720,14.966,32.853,NaN,NaN
20040402,012804,869273,32.658140,-122.805330,15.087,32.851,NaN,NaN
20040402,012835,869305,32.658870,-122.804860,15.089,32.834,NaN,NaN
20040402,012905,869335,32.659650,-122.804480,14.811,32.802,NaN,NaN
20040402,012935,869365,32.660450,-122.804070,14.770,32.805,NaN,NaN
20040402,013004,869394,32.661240,-122.803660,14.751,32.785,NaN,NaN
20040402,013035,869425,32.661970,-122.803200,14.827,32.831,NaN,NaN
20040402,013105,869455,32.662720,-122.802760,15.041,32.793,NaN,NaN
20040402,013135,869485,32.663470,-122.802310,14.901,32.720,NaN,NaN
20040402,013205,869514,32.664220,-122.801940,14.739,32.802,NaN,NaN
20040402,013235,869545,32.665020,-122.801530,14.694,32.748,NaN,NaN
20040402,013305,869575,32.665790,-122.801020,14.692,32.790,NaN,NaN
20040402,013335,869605,32.666610,-122.800650,14.712,32.799,NaN,NaN
20040402,013405,869635,32.667470,-122.800240,14.725,32.841,NaN,NaN
20040402,013435,869665,32.668350,-122.799800,14.733,32.836,NaN,NaN
20040402,013505,869694,32.669240,-122.799340,14.727,32.835,NaN,NaN
20040402,013535,869725,32.670080,-122.798880,14.744,32.810,NaN,NaN
20040402,013605,869755,32.671030,-122.798450,14.744,32.819,NaN,NaN
20040402,013634,869783,32.671850,-122.797950,14.743,32.836,NaN,NaN
20040402,013705,869815,32.672760,-122.797540,14.743,32.781,NaN,NaN
20040402,013734,869844,32.673660,-122.797080,14.736,32.847,NaN,NaN
20040402,013804,869874,32.674370,-122.796600,14.730,32.852,NaN,NaN
20040402,013834,869904,32.675180,-122.796200,14.835,32.843,NaN,NaN
20040402,013905,869935,32.676050,-122.795710,14.851,32.824,NaN,NaN
20040402,013935,869965,32.676870,-122.795260,14.739,32.827,NaN,NaN
20040402,014005,869995,32.677790,-122.794810,14.719,32.846,NaN,NaN
20040402,014035,870024,32.678700,-122.794330,14.710,32.844,NaN,NaN
20040402,014105,870055,32.679620,-122.793870,14.721,32.762,NaN,NaN
20040402,014135,870085,32.680490,-122.793370,14.830,32.789,NaN,NaN
20040402,014205,870115,32.681220,-122.792950,14.743,32.816,NaN,NaN
20040402,014235,870145,32.682020,-122.792520,14.712,32.803,NaN,NaN
20040402,014305,870175,32.682870,-122.792020,14.667,32.807,NaN,NaN
20040402,014335,870205,32.683810,-122.791660,14.637,32.753,NaN,NaN
20040402,014405,870235,32.684640,-122.791090,14.635,32.838,NaN,NaN
20040402,014435,870265,32.685440,-122.790670,14.639,32.832,NaN,NaN
20040402,014505,870295,32.686240,-122.790210,14.654,32.808,NaN,NaN
20040402,014535,870325,32.687110,-122.789790,14.685,32.742,NaN,NaN
20040402,014605,870355,32.687990,-122.789280,14.657,32.816,NaN,NaN
20040402,014634,870384,32.688870,-122.788820,14.639,32.829,NaN,NaN
20040402,014705,870415,32.689800,-122.788360,14.621,32.839,NaN,NaN
20040402,014735,870445,32.690600,-122.787910,14.628,32.833,NaN,NaN
20040402,014805,870475,32.691460,-122.787470,14.651,32.825,NaN,NaN
20040402,014835,870505,32.692260,-122.787000,14.652,32.838,NaN,NaN
20040402,014905,870534,32.693150,-122.786510,14.731,32.811,NaN,NaN
20040402,014935,870565,32.694020,-122.786050,14.769,32.837,NaN,NaN
20040402,015005,870595,32.694900,-122.785630,14.647,32.782,NaN,NaN
20040402,015035,870625,32.695780,-122.785130,14.639,32.806,NaN,NaN
20040402,015105,870655,32.696590,-122.784640,14.661,32.811,NaN,NaN
20040402,015135,870685,32.697450,-122.784160,14.710,32.790,NaN,NaN
20040402,015205,870715,32.698340,-122.783690,14.752,32.680,NaN,NaN
20040402,015235,870745,32.699190,-122.783220,14.645,32.805,NaN,NaN
20040402,015305,870775,32.700040,-122.782730,14.571,32.787,NaN,NaN
20040402,015335,870805,32.700840,-122.782240,14.549,32.831,NaN,NaN
20040402,015405,870835,32.701570,-122.781810,14.568,32.831,NaN,NaN
20040402,015435,870864,32.702340,-122.781330,14.683,32.844,NaN,NaN
20040402,015505,870895,32.703200,-122.780850,14.818,32.825,NaN,NaN
20040402,015534,870924,32.704120,-122.780410,14.681,32.816,NaN,NaN
20040402,015604,870953,32.704930,-122.779900,14.631,32.829,NaN,NaN
20040402,015634,870984,32.705710,-122.779420,14.617,32.833,NaN,NaN
20040402,015704,871014,32.706570,-122.778950,14.604,32.827,NaN,NaN
20040402,015734,871044,32.707480,-122.778470,14.714,32.756,NaN,NaN
20040402,015804,871074,32.708400,-122.778000,14.638,32.766,NaN,NaN
20040402,015834,871104,32.709230,-122.777480,14.517,32.798,NaN,NaN
20040402,015904,871133,32.710080,-122.777000,14.490,32.804,NaN,NaN
20040402,015934,871164,32.710930,-122.776530,14.494,32.813,NaN,NaN
20040402,020004,871194,32.711760,-122.776100,14.525,32.786,NaN,NaN
20040402,020034,871224,32.712610,-122.775550,14.529,32.817,NaN,NaN
20040402,020104,871254,32.713490,-122.775050,14.505,32.814,NaN,NaN
20040402,020134,871284,32.714420,-122.774570,14.497,32.811,NaN,NaN
20040402,020204,871314,32.715210,-122.774030,14.494,32.830,NaN,NaN
20040402,020234,871344,32.715980,-122.773730,14.509,32.833,NaN,NaN
20040402,020304,871374,32.716810,-122.773290,14.620,32.799,NaN,NaN
20040402,020334,871404,32.717740,-122.772810,14.600,32.773,NaN,NaN
20040402,020404,871434,32.718620,-122.772310,14.553,32.799,NaN,NaN
20040402,020434,871463,32.719510,-122.771840,14.568,32.827,NaN,NaN
20040402,020504,871494,32.720350,-122.771340,14.547,32.838,NaN,NaN
20040402,020534,871524,32.721170,-122.770840,14.602,32.801,NaN,NaN
20040402,020605,871555,32.722020,-122.770390,14.616,32.784,NaN,NaN
20040402,020634,871584,32.722880,-122.769860,14.514,32.765,NaN,NaN
20040402,020704,871614,32.723750,-122.769380,14.474,32.800,NaN,NaN
20040402,020734,871643,32.724630,-122.768920,14.472,32.780,NaN,NaN
20040402,020804,871674,32.725480,-122.768430,14.483,32.808,NaN,NaN
20040402,020834,871704,32.726390,-122.767950,14.535,32.812,NaN,NaN
20040402,020904,871734,32.727240,-122.767480,14.536,32.761,NaN,NaN
20040402,020934,871764,32.728180,-122.766940,14.534,32.842,NaN,NaN
20040402,021004,871794,32.729120,-122.766470,14.628,32.840,NaN,NaN
20040402,021034,871824,32.729920,-122.765990,14.659,32.841,NaN,NaN
20040402,021104,871854,32.730750,-122.765480,14.795,32.763,NaN,NaN
20040402,021134,871884,32.731560,-122.764990,14.609,32.817,NaN,NaN
20040402,021205,871915,32.732380,-122.764630,14.609,32.838,NaN,NaN
20040402,021235,871945,32.733220,-122.764110,14.675,32.821,NaN,NaN
20040402,021305,871975,32.734120,-122.763570,14.684,32.788,NaN,NaN
20040402,021334,872004,32.735000,-122.763100,14.855,32.811,NaN,NaN
20040402,021404,872034,32.735930,-122.762600,14.832,32.796,NaN,NaN
20040402,021434,872064,32.736820,-122.762100,14.619,32.747,NaN,NaN
20040402,021504,872094,32.737650,-122.761630,14.609,32.741,NaN,NaN
20040402,021535,872125,32.738490,-122.761190,14.604,32.798,NaN,NaN
20040402,021605,872155,32.739360,-122.760640,14.514,32.795,NaN,NaN
20040402,021635,872185,32.740140,-122.760170,14.498,32.783,NaN,NaN
20040402,021706,872216,32.740930,-122.759670,14.501,32.806,NaN,NaN
20040402,021736,872246,32.741720,-122.759210,14.572,32.822,NaN,NaN
20040402,021805,872275,32.742580,-122.758740,14.621,32.805,NaN,NaN
20040402,021835,872305,32.743420,-122.758240,14.523,32.794,NaN,NaN
20040402,021905,872335,32.744300,-122.757820,14.530,32.792,NaN,NaN
20040402,021935,872365,32.745190,-122.757290,14.551,32.830,NaN,NaN
20040402,022005,872394,32.746030,-122.756840,14.582,32.838,NaN,NaN
20040402,022035,872425,32.746870,-122.756370,14.693,32.838,NaN,NaN
20040402,022105,872455,32.747740,-122.755900,14.781,32.809,NaN,NaN
20040402,022135,872485,32.748610,-122.755410,14.584,32.795,NaN,NaN
20040402,022205,872515,32.749420,-122.754910,14.519,32.799,NaN,NaN
20040402,022235,872545,32.750240,-122.754450,14.512,32.800,NaN,NaN
20040402,022305,872575,32.751080,-122.753950,14.552,32.820,NaN,NaN
20040402,022335,872605,32.751870,-122.753520,14.769,32.777,NaN,NaN
20040402,022405,872635,32.752740,-122.753030,14.667,32.738,NaN,NaN
20040402,022435,872665,32.753640,-122.752530,14.494,32.729,NaN,NaN
20040402,022505,872695,32.754390,-122.752060,14.468,32.801,NaN,NaN
20040402,022536,872726,32.755190,-122.751610,14.516,32.832,NaN,NaN
20040402,022606,872756,32.756110,-122.751140,14.543,32.748,NaN,NaN
20040402,022636,872786,32.757040,-122.750650,14.493,32.759,NaN,NaN
20040402,022706,872816,32.757980,-122.750130,14.494,32.830,NaN,NaN
20040402,022736,872846,32.758870,-122.749690,14.499,32.834,NaN,NaN
20040402,022806,872876,32.759710,-122.749240,14.516,32.769,NaN,NaN
20040402,022836,872906,32.760580,-122.748760,14.580,32.829,NaN,NaN
20040402,022906,872936,32.761450,-122.748290,14.538,32.812,NaN,NaN
20040402,022936,872966,32.762360,-122.747820,14.488,32.827,NaN,NaN
20040402,023006,872996,32.763270,-122.747360,14.468,32.832,NaN,NaN
20040402,023036,873026,32.764160,-122.746860,14.465,32.824,NaN,NaN
20040402,023106,873056,32.765050,-122.746340,14.474,32.832,NaN,NaN
20040402,023136,873086,32.765840,-122.745870,14.500,32.847,NaN,NaN
20040402,023206,873116,32.766630,-122.745420,14.499,32.848,NaN,NaN
20040402,023236,873145,32.767480,-122.744990,14.504,32.779,NaN,NaN
20040402,023306,873176,32.768290,-122.744550,14.509,32.821,NaN,NaN
20040402,023336,873206,32.769210,-122.744070,14.494,32.802,NaN,NaN
20040402,023406,873236,32.770060,-122.743560,14.491,32.825,NaN,NaN
20040402,023436,873266,32.770910,-122.743050,14.496,32.838,NaN,NaN
20040402,023506,873296,32.771770,-122.742680,14.536,32.852,NaN,NaN
20040402,023536,873326,32.772600,-122.742160,14.558,32.827,NaN,NaN
20040402,023606,873356,32.773420,-122.741670,14.490,32.844,NaN,NaN
20040402,023636,873386,32.774220,-122.741260,14.460,32.837,NaN,NaN
20040402,023706,873416,32.775100,-122.740780,14.487,32.851,NaN,NaN
20040402,023736,873446,32.776040,-122.740300,14.528,32.828,NaN,NaN
20040402,023806,873475,32.776970,-122.739850,14.505,32.831,NaN,NaN
20040402,023836,873506,32.777850,-122.739440,14.503,32.821,NaN,NaN
20040402,023906,873536,32.778710,-122.738910,14.494,32.834,NaN,NaN
20040402,023936,873566,32.779470,-122.738480,14.503,32.794,NaN,NaN
20040402,024006,873596,32.780230,-122.738110,14.606,32.811,NaN,NaN
20040402,024036,873626,32.781100,-122.737630,14.568,32.761,NaN,NaN
20040402,024106,873655,32.781970,-122.737160,14.488,32.746,NaN,NaN
20040402,024136,873686,32.782850,-122.736650,14.465,32.800,NaN,NaN
20040402,024206,873716,32.783640,-122.736220,14.468,32.795,NaN,NaN
20040402,024236,873746,32.784470,-122.735760,14.483,32.810,NaN,NaN
20040402,024306,873776,32.785370,-122.735330,14.525,32.737,NaN,NaN
20040402,024336,873806,32.786210,-122.734890,14.516,32.794,NaN,NaN
20040402,024406,873836,32.787030,-122.734430,14.485,32.827,NaN,NaN
20040402,024436,873866,32.787840,-122.734030,14.485,32.847,NaN,NaN
20040402,024506,873896,32.788730,-122.733490,14.631,32.835,NaN,NaN
20040402,024536,873926,32.789520,-122.733110,14.653,32.843,NaN,NaN
20040402,024605,873955,32.790350,-122.732740,14.519,32.808,NaN,NaN
20040402,024635,873985,32.791140,-122.732200,14.496,32.827,NaN,NaN
20040402,024705,874015,32.791940,-122.731760,14.507,32.789,NaN,NaN
20040402,024735,874045,32.792760,-122.731350,14.581,32.806,NaN,NaN
20040402,024805,874074,32.793590,-122.730870,14.700,32.843,NaN,NaN
20040402,024835,874105,32.794350,-122.730430,14.747,32.631,NaN,NaN
20040402,024905,874135,32.795220,-122.729950,14.739,32.803,NaN,NaN
20040402,024935,874165,32.796050,-122.729480,14.553,32.818,NaN,NaN
20040402,025005,874195,32.796880,-122.729080,14.524,32.785,NaN,NaN
20040402,025035,874225,32.797720,-122.728640,14.534,32.848,NaN,NaN
20040402,025105,874255,32.798570,-122.728230,14.661,32.792,NaN,NaN
20040402,025135,874285,32.799390,-122.727810,14.779,32.822,NaN,NaN
20040402,025205,874315,32.800270,-122.727350,14.768,32.811,NaN,NaN
20040402,025235,874345,32.801140,-122.726900,14.611,32.821,NaN,NaN
20040402,025306,874376,32.802010,-122.726420,14.552,32.795,NaN,NaN
20040402,025336,874406,32.802850,-122.726040,14.622,32.831,NaN,NaN
20040402,025406,874436,32.803790,-122.725610,14.751,32.823,NaN,NaN
20040402,025436,874466,32.804710,-122.725210,14.614,32.830,NaN,NaN
20040402,025506,874495,32.805430,-122.724710,14.541,32.838,NaN,NaN
20040402,025536,874526,32.806150,-122.724290,14.559,32.849,NaN,NaN